Naples, FL

3:50 PM EDT on June 25, 2017 (GMT -0400)
Naples Municipal

Weather History for KAPF - April, 2014

Change the Weather History Date:

Sunday, April 6, 2014

  Actual Average Record
Temperature  
Mean Temperature 76 °F 72 °F  
Max Temperature 85 °F 82 °F 89 °F (1981)
Min Temperature 66 °F 62 °F 40 °F (1987)
Degree Days  
Heating Degree Days 0 0  
Month to date heating degree days 0 0  
Since 1 July heating degree days 149 256  
Cooling Degree Days 11 7  
Month to date cooling degree days 50 42  
Year to date cooling degree days 481 409  
Growing Degree Days 24 (Base 50)    
Moisture  
Dew Point 69 °F    
Average Humidity 79    
Maximum Humidity 100    
Minimum Humidity 58    
Precipitation  
Precipitation 0.00 in 0.08 in 2.05 in (2008)
Month to date precipitation 0.00 0.49  
Year to date precipitation 5.06 6.82  
Snow  
Snow 0.00 in - - ()
Month to date snowfall 0.0  
Since 1 July snowfall 0.0  
Snow Depth 0.00 in    
Sea Level Pressure  
Sea Level Pressure 29.98 in    
Wind  
Wind Speed 7 mph (SSE)    
Max Wind Speed 21 mph    
Max Gust Speed 27 mph    
Visibility 10 miles    
Events      
T = Trace of Precipitation, MM = Missing Value Source: NWS Daily Summary

Daily Weather History Graph

Daily Weather History Graph

Search for Another Location

Airport or City:

Trip Planner

Search our weather history database for the weather conditions in past years. The results will help you decide how hot, cold, wet, or windy it might be!

Date:

Astronomy

Apr. 06, 2014 Rise Set
Actual Time 7:12 AM EDT 7:46 PM EDT
Civil Twilight 6:49 AM EDT 8:09 PM EDT
Nautical Twilight 6:22 AM EDT 8:37 PM EDT
Astronomical Twilight 5:54 AM EDT 9:04 PM EDT
Moon 12:30 PM EDT (4/6) 1:23 AM EDT (4/6)
Length of Visible Light 13h 20m
Length of Day
12h 33m
Waxing Crescent, 43% of the Moon is Illuminated
Apr 6
Waxing Crescent
Apr 7
First Quarter
Apr 15
Full
Apr 22
Last Quarter
Apr 29
New

Hourly Weather History & Observations

Time (EDT) Temp. Heat Index Dew Point Humidity Pressure Visibility Wind Dir Wind Speed Gust Speed Precip Events Conditions
12:53 AM 70.0 °F - 69.1 °F 97% 30.04 in 10.0 mi Calm Calm - N/A   Clear
1:53 AM 70.0 °F - 69.1 °F 97% 30.03 in 10.0 mi Calm Calm - N/A   Clear
2:53 AM 69.1 °F - 69.1 °F 100% 30.02 in 9.0 mi Calm Calm - N/A   Clear
3:53 AM 68.0 °F - 68.0 °F 100% 30.01 in 9.0 mi Calm Calm - N/A   Clear
4:53 AM 68.0 °F - 68.0 °F 100% 29.99 in 10.0 mi Calm Calm - N/A   Clear
5:53 AM 66.9 °F - 66.0 °F 97% 30.00 in 10.0 mi Calm Calm - N/A   Clear
6:53 AM 66.9 °F - 66.0 °F 97% 29.99 in 9.0 mi SE 3.5 mph - N/A   Clear
7:53 AM 68.0 °F - 68.0 °F 100% 30.01 in 8.0 mi ESE 4.6 mph - N/A   Clear
8:53 AM 73.0 °F - 70.0 °F 90% 30.01 in 10.0 mi SE 6.9 mph - N/A   Clear
9:53 AM 77.0 °F - 70.0 °F 79% 30.01 in 10.0 mi SE 11.5 mph - N/A   Clear
10:53 AM 80.1 °F 82.9 °F 69.1 °F 69% 30.00 in 10.0 mi SSE 15.0 mph 27.6 mph N/A   Partly Cloudy
11:53 AM 82.0 °F 84.9 °F 68.0 °F 62% 30.00 in 10.0 mi SSE 17.3 mph 21.9 mph N/A   Partly Cloudy
12:53 PM 82.9 °F 86.5 °F 69.1 °F 63% 29.99 in 10.0 mi South 15.0 mph 21.9 mph N/A   Scattered Clouds
1:53 PM 82.9 °F 85.8 °F 68.0 °F 60% 29.98 in 10.0 mi South 15.0 mph 25.3 mph N/A   Clear
2:53 PM 82.9 °F 85.8 °F 68.0 °F 60% 29.96 in 10.0 mi South 10.4 mph 19.6 mph N/A   Clear
3:53 PM 82.9 °F 85.8 °F 68.0 °F 60% 29.94 in 10.0 mi SSW 13.8 mph - N/A   Clear
4:53 PM 82.9 °F 85.4 °F 66.9 °F 58% 29.94 in 10.0 mi SSW 12.7 mph - N/A   Clear
5:53 PM 81.0 °F 82.5 °F 64.0 °F 56% 29.93 in 10.0 mi SSW 8.1 mph - N/A   Clear
6:53 PM 79.0 °F - 69.1 °F 72% 29.93 in 10.0 mi SSW 8.1 mph - N/A   Clear
7:53 PM 75.9 °F - 71.1 °F 85% 29.94 in 10.0 mi South 5.8 mph - N/A   Clear
8:53 PM 75.0 °F - 71.1 °F 87% 29.95 in 10.0 mi South 4.6 mph - N/A   Clear
9:53 PM 73.9 °F - 71.1 °F 91% 29.96 in 10.0 mi SSE 3.5 mph - N/A   Clear
10:53 PM 73.0 °F - 71.1 °F 93% 29.98 in 10.0 mi SE 3.5 mph - N/A   Clear
11:53 PM 72.0 °F - 70.0 °F 93% 29.98 in 10.0 mi East 3.5 mph - N/A   Clear